When you browse on this site, cookies collect data to enhance your experience and personalize the content and advertising you see.
Visit our Privacy Policy to learn more. By continuing to use the site, you agree to this use of cookies and data.
  • In Deutschland
  • Länderverzeichnis
  • Für 7 Tage
  • Wassertemperatur
  • Wetterkarte
  • Widgets
  • user-avatar
    Anmelden

    Stündliche Wetter La Rioja

    Heute, 19 August, Montag

    Zeit Temperatur Niederschläge Wind Luftdruck Luftfeuchtigkeit
    00:00 +11°C° 0 mm 1 m/S 720 mmHg 51%
    01:00 +11°C° 0 mm 1 m/S 720 mmHg 56%
    02:00 +10°C° 0 mm 1 m/S 720 mmHg 61%
    03:00 +10°C° 0 mm 1 m/S 720 mmHg 67%
    04:00 +9°C° 0 mm 1 m/S 719 mmHg 73%
    05:00 +9°C° 0 mm 1 m/S 719 mmHg 79%
    06:00 +9°C° 0 mm 1 m/S 719 mmHg 78%
    07:00 +10°C° 0 mm 1 m/S 720 mmHg 77%
    08:00 +11°C° 0 mm 1 m/S 720 mmHg 76%
    09:00 +12°C° 0 mm 1 m/S 720 mmHg 72%
    10:00 +13°C° 0 mm 2 m/S 720 mmHg 68%
    11:00 +14°C° 0 mm 2 m/S 720 mmHg 64%
    12:00 +14°C° 0 mm 2 m/S 719 mmHg 62%
    13:00 +15°C° 0 mm 2 m/S 718 mmHg 60%
    14:00 +15°C° 0 mm 2 m/S 717 mmHg 58%
    15:00 +15°C° 0 mm 2 m/S 717 mmHg 58%
    16:00 +15°C° 0 mm 2 m/S 717 mmHg 58%
    17:00 +15°C° 0 mm 1 m/S 717 mmHg 58%
    18:00 +14°C° 0 mm 1 m/S 717 mmHg 62%
    19:00 +14°C° 0 mm 1 m/S 718 mmHg 65%
    20:00 +13°C° 0 mm 1 m/S 719 mmHg 69%
    21:00 +12°C° 0 mm 1 m/S 719 mmHg 71%
    22:00 +11°C° 0 mm 1 m/S 719 mmHg 73%
    23:00 +11°C° 0 mm 1 m/S 719 mmHg 76%

    Morgen, 20 August, Dienstag

    Zeit Temperatur Niederschläge Wind Luftdruck Luftfeuchtigkeit
    00:00 +10°C° 0 mm 1 m/S 719 mmHg 75%
    01:00 +9°C° 0 mm 1 m/S 719 mmHg 75%
    02:00 +9°C° 0 mm 1 m/S 720 mmHg 74%
    03:00 +8°C° 0 mm 1 m/S 720 mmHg 75%
    04:00 +8°C° 0 mm 1 m/S 719 mmHg 75%
    05:00 +7°C° 0 mm 1 m/S 719 mmHg 76%
    06:00 +8°C° 0 mm 1 m/S 720 mmHg 73%
    07:00 +9°C° 0 mm 1 m/S 720 mmHg 69%
    08:00 +10°C° 0 mm 1 m/S 721 mmHg 66%
    09:00 +11°C° 0 mm 1 m/S 721 mmHg 59%
    10:00 +13°C° 0 mm 1 m/S 721 mmHg 53%
    11:00 +15°C° 0 mm 2 m/S 721 mmHg 46%
    12:00 +16°C° 0 mm 2 m/S 720 mmHg 43%
    13:00 +17°C° 0 mm 2 m/S 719 mmHg 40%
    14:00 +18°C° 0 mm 2 m/S 719 mmHg 37%
    15:00 +18°C° 0 mm 2 m/S 718 mmHg 37%
    16:00 +18°C° 0 mm 2 m/S 718 mmHg 36%
    17:00 +18°C° 0 mm 2 m/S 718 mmHg 36%
    18:00 +16°C° 0 mm 2 m/S 718 mmHg 40%
    19:00 +15°C° 0 mm 2 m/S 718 mmHg 45%
    20:00 +13°C° 0 mm 2 m/S 718 mmHg 49%
    21:00 +13°C° 0 mm 2 m/S 718 mmHg 51%
    22:00 +12°C° 0 mm 1 m/S 719 mmHg 53%
    23:00 +11°C° 0 mm 1 m/S 719 mmHg 55%

    übermorgen, 21 August, Mittwoch

    Zeit Temperatur Niederschläge Wind Luftdruck Luftfeuchtigkeit
    00:00 +11°C° 0 mm 1 m/S 718 mmHg 57%
    01:00 +10°C° 0 mm 1 m/S 718 mmHg 59%
    02:00 +10°C° 0 mm 1 m/S 718 mmHg 61%
    03:00 +9°C° 0 mm 1 m/S 718 mmHg 63%
    04:00 +9°C° 0 mm 1 m/S 717 mmHg 64%
    05:00 +9°C° 0 mm 1 m/S 717 mmHg 66%
    06:00 +8°C° 0 mm 2 m/S 717 mmHg 62%
    07:00 +9°C° 0 mm 2 m/S 718 mmHg 57%
    08:00 +10°C° 0 mm 2 m/S 718 mmHg 53%
    09:00 +13°C° 0 mm 2 m/S 718 mmHg 47%
    10:00 +15°C° 0 mm 2 m/S 718 mmHg 42%
    11:00 +17°C° 0 mm 2 m/S 717 mmHg 36%
    12:00 +18°C° 0 mm 2 m/S 717 mmHg 34%
    13:00 +19°C° 0 mm 2 m/S 716 mmHg 32%
    14:00 +20°C° 0 mm 2 m/S 715 mmHg 30%
    15:00 +20°C° 0 mm 2 m/S 715 mmHg 30%
    16:00 +21°C° 0 mm 1 m/S 714 mmHg 30%
    17:00 +21°C° 0 mm 1 m/S 714 mmHg 30%
    18:00 +20°C° 0 mm 1 m/S 714 mmHg 33%
    19:00 +18°C° 0 mm 1 m/S 715 mmHg 37%
    20:00 +15°C° 0 mm 2 m/S 715 mmHg 41%
    21:00 +15°C° 0 mm 1 m/S 715 mmHg 44%
    22:00 +14°C° 0 mm 1 m/S 716 mmHg 47%
    23:00 +13°C° 0 mm 1 m/S 716 mmHg 49%

    22 August, Donnerstag

    Zeit Temperatur Niederschläge Wind Luftdruck Luftfeuchtigkeit
    00:00 +13°C° 0 mm 2 m/S 716 mmHg 51%
    01:00 +12°C° 0 mm 2 m/S 717 mmHg 53%
    02:00 +11°C° 0 mm 3 m/S 717 mmHg 55%
    03:00 +11°C° 0 mm 3 m/S 717 mmHg 57%
    04:00 +10°C° 0 mm 3 m/S 717 mmHg 60%
    05:00 +10°C° 0 mm 3 m/S 717 mmHg 62%
    06:00 +11°C° 0 mm 3 m/S 718 mmHg 59%
    07:00 +11°C° 0 mm 3 m/S 719 mmHg 56%
    08:00 +12°C° 0 mm 3 m/S 720 mmHg 53%
    09:00 +14°C° 0 mm 3 m/S 720 mmHg 49%
    10:00 +17°C° 0 mm 3 m/S 721 mmHg 44%
    11:00 +19°C° 0 mm 4 m/S 721 mmHg 39%
    12:00 +19°C° 0 mm 3 m/S 720 mmHg 38%
    13:00 +20°C° 0 mm 3 m/S 720 mmHg 36%
    14:00 +21°C° 0 mm 3 m/S 719 mmHg 34%
    15:00 +21°C° 0 mm 3 m/S 719 mmHg 34%
    16:00 +21°C° 0 mm 2 m/S 719 mmHg 34%
    17:00 +21°C° 0 mm 2 m/S 719 mmHg 35%
    18:00 +19°C° 0 mm 2 m/S 720 mmHg 40%
    19:00 +17°C° 0 mm 2 m/S 720 mmHg 45%
    20:00 +16°C° 0 mm 1 m/S 721 mmHg 49%
    21:00 +15°C° 0 mm 1 m/S 721 mmHg 52%
    22:00 +14°C° 0 mm 1 m/S 721 mmHg 54%
    23:00 +14°C° 0 mm 1 m/S 721 mmHg 57%

    23 August, Freitag

    Zeit Temperatur Niederschläge Wind Luftdruck Luftfeuchtigkeit
    00:00 +14°C° 0 mm 1 m/S 721 mmHg 58%
    01:00 +13°C° 0 mm 1 m/S 721 mmHg 60%
    02:00 +13°C° 0 mm 1 m/S 721 mmHg 61%
    03:00 +13°C° 0 mm 1 m/S 720 mmHg 63%
    04:00 +12°C° 0 mm 1 m/S 720 mmHg 65%
    05:00 +12°C° 0 mm 1 m/S 719 mmHg 67%
    06:00 +13°C° 0 mm 1 m/S 720 mmHg 64%
    07:00 +14°C° 0 mm 1 m/S 720 mmHg 60%
    08:00 +15°C° 0 mm 1 m/S 720 mmHg 57%
    09:00 +16°C° 0 mm 2 m/S 720 mmHg 52%
    10:00 +18°C° 0 mm 2 m/S 720 mmHg 47%
    11:00 +20°C° 0 mm 2 m/S 719 mmHg 42%
    12:00 +21°C° 0 mm 2 m/S 718 mmHg 39%
    13:00 +23°C° 0 mm 2 m/S 717 mmHg 36%
    14:00 +24°C° 0 mm 3 m/S 716 mmHg 33%
    15:00 +24°C° 0 mm 3 m/S 715 mmHg 33%
    16:00 +25°C° 0 mm 3 m/S 715 mmHg 34%
    17:00 +25°C° 0 mm 3 m/S 714 mmHg 34%
    18:00 +21°C° 0 mm 3 m/S 714 mmHg 40%
    19:00 +19°C° 0 mm 2 m/S 714 mmHg 47%
    20:00 +17°C° 0 mm 2 m/S 714 mmHg 54%
    21:00 +16°C° 0 mm 2 m/S 714 mmHg 57%
    22:00 +16°C° 0 mm 1 m/S 714 mmHg 60%
    23:00 +15°C° 0 mm 1 m/S 714 mmHg 63%

    24 August, Samstag

    Zeit Temperatur Niederschläge Wind Luftdruck Luftfeuchtigkeit
    00:00 +14°C° 0 mm 1 m/S 714 mmHg 65%
    01:00 +14°C° 0 mm 1 m/S 713 mmHg 66%
    02:00 +14°C° 0 mm 1 m/S 713 mmHg 68%
    03:00 +13°C° 0 mm 1 m/S 713 mmHg 70%
    04:00 +13°C° 0 mm 2 m/S 712 mmHg 71%
    05:00 +12°C° 0 mm 2 m/S 712 mmHg 73%
    06:00 +13°C° 0 mm 2 m/S 712 mmHg 69%
    07:00 +14°C° 0 mm 2 m/S 712 mmHg 65%
    08:00 +15°C° 0 mm 2 m/S 713 mmHg 61%
    09:00 +17°C° 0 mm 2 m/S 713 mmHg 55%
    10:00 +19°C° 0 mm 3 m/S 713 mmHg 49%
    11:00 +21°C° 0 mm 3 m/S 713 mmHg 44%
    12:00 +22°C° 0 mm 3 m/S 712 mmHg 41%
    13:00 +24°C° 0 mm 2 m/S 712 mmHg 38%
    14:00 +25°C° 0 mm 2 m/S 711 mmHg 35%
    15:00 +25°C° 0 mm 2 m/S 711 mmHg 35%
    16:00 +25°C° 0 mm 2 m/S 711 mmHg 35%
    17:00 +25°C° 0 mm 2 m/S 711 mmHg 35%
    18:00 +23°C° 0 mm 2 m/S 711 mmHg 39%
    19:00 +21°C° 0 mm 2 m/S 711 mmHg 43%
    20:00 +19°C° 0 mm 2 m/S 712 mmHg 47%
    21:00 +18°C° 0 mm 2 m/S 712 mmHg 49%
    22:00 +19°C° 0 mm 1 m/S 712 mmHg 51%
    23:00 +18°C° 0 mm 1 m/S 712 mmHg 53%
    Mehr zeigen